Magnus Heinason — OW2252 — position and weather

sailwx.info

Track history (hours):
 
Tides and Currents Weather Stations Pressure Air Temp Water Temp Dewpoint Dewpoint Depression Visibility Wind Speed Wind Dir Waves Ship Positions

Oceanographic research ship Magnus Heinason (Faroe Islands)

Detailed information on ship capabilities available from ARCUS's ALIAS (Arctic Logistics Information and Support) project.

Last reported at 2014-Sep-01 22:34 UTC. Time now 2014-Sep-01 23:35 UTC.
Position N 62°00' W 006°46'.

Length 44 m; draft 4 m.

Type: . MMSI: 231041000.

Date/timePositionNaut miles runAvg speedWind from/ knotsBaromVisibWave heightAir tempDewpointWater temp
2014-Sep-01 22:34N 62°00' W 006°46'0 0.0
2014-Sep-01 21:34N 62°00' W 006°46'0 0.0
2014-Sep-01 20:34N 62°00' W 006°46'0 0.0
2014-Sep-01 19:33N 62°00' W 006°46'0 0.0
2014-Sep-01 18:33N 62°00' W 006°46'0 0.0
2014-Sep-01 17:34N 62°00' W 006°46'0 0.0
2014-Sep-01 16:34N 62°00' W 006°46'0 0.0
2014-Sep-01 15:33N 62°00' W 006°46'0 0.0
2014-Sep-01 14:34N 62°00' W 006°46'0 0.0
2014-Sep-01 13:34N 62°00' W 006°46'0 0.0
2014-Sep-01 12:34N 62°00' W 006°46'0 0.0
2014-Sep-01 11:34N 62°00' W 006°46'0 0.0
2014-Sep-01 10:34N 62°00' W 006°46'0 0.0
2014-Sep-01 09:34N 62°00' W 006°46'0 0.0
2014-Sep-01 08:33N 62°00' W 006°46'0 0.0
2014-Sep-01 07:34N 62°00' W 006°46'0 0.0
2014-Sep-01 06:34N 62°00' W 006°46'0 0.0
2014-Sep-01 05:34N 62°00' W 006°46'5 5.2
2014-Sep-01 04:33N 62°03' W 006°37'8 8.3
2014-Sep-01 03:33N 62°01' W 006°20'7 7.0
2014-Sep-01 02:33N 61°59' W 006°06'6 5.9
2014-Sep-01 01:34N 61°56' W 005°54'5 5.4
2014-Sep-01 00:34N 61°54' W 005°44'7 7.2
2014-Aug-31 23:33N 61°51' W 005°30'6 6.4
2014-Aug-31 22:33N 61°48' W 005°17'29 7.0
2014-Aug-31 18:28N 61°36' W 004°22'4 4.1
2014-Aug-31 17:28N 61°35' W 004°14'17 5.3
2014-Aug-31 14:16N 61°27' W 003°42'84 3.4
2014-Aug-30 13:14N 61°16' W 006°37'26 9.8
2014-Aug-30 10:33N 61°40' W 007°01'10 9.8
2014-Aug-30 09:33N 61°50' W 006°60'6 5.9
2014-Aug-30 08:29N 61°45' W 007°08'7 6.0
2014-Aug-30 07:20N 61°40' W 007°18'5 6.3
2014-Aug-30 06:28N 61°36' W 007°25'35 1.7
2014-Aug-29 10:31N 62°09' W 007°49'7 6.5
2014-Aug-29 09:28N 62°15' W 007°55'12 5.8
2014-Aug-29 07:22N 62°26' W 008°06'85 3.0
2014-Aug-28 03:32N 63°30' W 006°05'5 4.3
2014-Aug-28 02:29N 63°26' W 006°04'6 5.9
2014-Aug-28 01:32N 63°20' W 006°05'66 6.4
2014-Aug-27 15:10N 62°14' W 006°18'5 8.9
2014-Aug-27 14:33N 62°10' W 006°26'9 9.2
2014-Aug-27 13:33N 62°04' W 006°40'4 4.3
2014-Aug-27 12:33N 62°00' W 006°46'0 0.0
2014-Aug-27 11:33N 62°00' W 006°46'0 0.0
2014-Aug-27 10:33N 62°00' W 006°46'0 0.0
2014-Aug-27 09:34N 62°00' W 006°46'0 0.0
2014-Aug-27 08:34N 62°00' W 006°46'0 0.0
2014-Aug-27 07:33N 62°00' W 006°46'0 0.0
2014-Aug-27 06:33N 62°00' W 006°46'0 0.0
2014-Aug-27 05:33N 62°00' W 006°46'0 0.0
2014-Aug-27 04:34N 62°00' W 006°46'0 0.0
2014-Aug-27 03:34N 62°00' W 006°46'0 0.0
2014-Aug-27 02:34N 62°00' W 006°46'0 0.0
2014-Aug-27 01:33N 62°00' W 006°46'0 0.0
2014-Aug-27 00:33N 62°00' W 006°46'0 0.0
2014-Aug-26 23:32N 62°00' W 006°46'0 0.0
2014-Aug-26 22:33N 62°00' W 006°46'0 0.0
2014-Aug-26 21:33N 62°00' W 006°46'0 0.0
2014-Aug-26 20:34N 62°00' W 006°46'0 0.0
2014-Aug-26 19:33N 62°00' W 006°46'0 0.0
2014-Aug-26 18:33N 62°00' W 006°46'0 0.0
2014-Aug-26 17:34N 62°00' W 006°46'0 0.0
2014-Aug-26 16:34N 62°00' W 006°46'0 0.0
2014-Aug-26 15:33N 62°00' W 006°46'0 0.0
2014-Aug-26 14:33N 62°00' W 006°46'0 0.0
2014-Aug-26 13:33N 62°00' W 006°46'0 0.0
2014-Aug-26 12:33N 62°00' W 006°46'0 0.0
2014-Aug-26 11:33N 62°00' W 006°46'0 0.0
2014-Aug-26 10:33N 62°00' W 006°46'0 0.0
2014-Aug-26 09:33N 62°00' W 006°46'0 0.0
2014-Aug-26 08:33N 62°00' W 006°46'0 0.0
2014-Aug-26 07:34N 62°00' W 006°46'0 0.0
2014-Aug-26 06:33N 62°00' W 006°46'0 0.0
2014-Aug-26 05:33N 62°00' W 006°46'0 0.0
2014-Aug-26 04:33N 62°00' W 006°46'0 0.0
2014-Aug-26 03:33N 62°00' W 006°46'0 0.0
2014-Aug-26 02:34N 62°00' W 006°46'0 0.0
2014-Aug-26 01:33N 62°00' W 006°46'0 0.0
2014-Aug-26 00:33N 62°00' W 006°46'0 0.0
2014-Aug-25 23:33N 62°00' W 006°46'0 0.0
2014-Aug-25 22:33N 62°00' W 006°46'0 0.0
2014-Aug-25 21:33N 62°00' W 006°46'0 0.0
2014-Aug-25 20:33N 62°00' W 006°46'0 0.0
2014-Aug-25 19:33N 62°00' W 006°46'0 0.0
2014-Aug-25 18:33N 62°00' W 006°46'0 0.0
2014-Aug-25 17:33N 62°00' W 006°46'0 0.0
2014-Aug-25 16:34N 62°00' W 006°46'0 0.0
2014-Aug-25 15:33N 62°00' W 006°46'4 3.5
2014-Aug-25 14:33N 62°03' W 006°51'2 2.2
2014-Aug-25 13:32N 62°04' W 006°47'5 5.2
2014-Aug-25 12:34N 62°09' W 006°46'2 2.4
2014-Aug-25 11:33N 62°07' W 006°45'4 4.4
2014-Aug-25 10:33N 62°06' W 006°35'5 5.0
2014-Aug-25 09:32N 62°11' W 006°32'10 9.6
2014-Aug-25 08:33N 62°03' W 006°41'3 3.4
2014-Aug-25 07:34N 62°00' W 006°46'0 0.0
2014-Aug-25 06:33N 62°00' W 006°46'0 0.0
2014-Aug-25 05:34N 62°00' W 006°46'0 0.0
2014-Aug-25 04:33N 62°00' W 006°46'0 0.0
2014-Aug-25 03:34N 62°00' W 006°46'0 0.0
2014-Aug-25 02:34N 62°00' W 006°46'0 0.0
2014-Aug-25 01:33N 62°00' W 006°46'0 0.0
2014-Aug-25 00:34N 62°00' W 006°46'0 0.0
2014-Aug-24 23:34N 62°00' W 006°46'0 0.0
2014-Aug-24 22:33N 62°00' W 006°46'0 0.0
2014-Aug-24 21:33N 62°00' W 006°46'0 0.0
2014-Aug-24 20:34N 62°00' W 006°46'0 0.0
2014-Aug-24 19:33N 62°00' W 006°46'0 0.0
2014-Aug-24 18:33N 62°00' W 006°46'0 0.0
2014-Aug-24 17:34N 62°00' W 006°46'0 0.0
2014-Aug-24 16:33N 62°00' W 006°46'0 0.0
2014-Aug-24 15:33N 62°00' W 006°46'0 0.0
2014-Aug-24 14:34N 62°00' W 006°46'0 0.0
2014-Aug-24 13:33N 62°00' W 006°46'0 0.0
2014-Aug-24 12:33N 62°00' W 006°46'0 0.0
2014-Aug-24 11:34N 62°00' W 006°46'0 0.0
2014-Aug-24 10:34N 62°00' W 006°46'0 0.0
2014-Aug-24 09:33N 62°00' W 006°46'0 0.0
2014-Aug-24 08:34N 62°00' W 006°46'0 0.0
2014-Aug-24 07:34N 62°00' W 006°46'0 0.0
2014-Aug-24 06:33N 62°00' W 006°46'0 0.0
2014-Aug-24 05:34N 62°00' W 006°46'0 0.0
2014-Aug-24 04:33N 62°00' W 006°46'0 0.0
2014-Aug-24 03:33N 62°00' W 006°46'0 0.0
2014-Aug-24 02:33N 62°00' W 006°46'0 0.0
2014-Aug-24 01:34N 62°00' W 006°46'0 0.0
2014-Aug-24 00:34N 62°00' W 006°46'0 0.0
2014-Aug-23 23:34N 62°00' W 006°46'0 0.0
2014-Aug-23 22:33N 62°00' W 006°46'0 0.0
2014-Aug-23 21:33N 62°00' W 006°46'0 0.0
2014-Aug-23 20:34N 62°00' W 006°46'0 0.2
2014-Aug-23 19:34N 62°00' W 006°46'0 0.0
2014-Aug-23 03:34N 62°00' W 006°46'0 0.0
2014-Aug-23 02:34N 62°00' W 006°46'0 0.0
2014-Aug-23 01:33N 62°00' W 006°46'0 0.0
2014-Aug-23 00:34N 62°00' W 006°46'0 0.0
2014-Aug-22 23:34N 62°00' W 006°46'0 0.0
2014-Aug-22 22:34N 62°00' W 006°46'  
Track history (hours):
 
Tides and Currents Weather Stations Pressure Air Temp Water Temp Dewpoint Dewpoint Depression Visibility Wind Speed Wind Dir Waves Ship Positions

Oceanographic research ship Magnus Heinason (Faroe Islands)

Detailed information on ship capabilities available from ARCUS's ALIAS (Arctic Logistics Information and Support) project.

Last reported at 2014-Sep-01 22:34 UTC. Time now 2014-Sep-01 23:35 UTC.
Position N 62°00' W 006°46'.

Length 44 m; draft 4 m.

Type: . MMSI: 231041000.

Date/timePositionNaut miles runAvg speedWind from/ knotsBaromVisibWave heightAir tempDewpointWater temp
2014-Sep-01 22:34N 62°00' W 006°46'0 0.0
2014-Sep-01 21:34N 62°00' W 006°46'0 0.0
2014-Sep-01 20:34N 62°00' W 006°46'0 0.0
2014-Sep-01 19:33N 62°00' W 006°46'0 0.0
2014-Sep-01 18:33N 62°00' W 006°46'0 0.0
2014-Sep-01 17:34N 62°00' W 006°46'0 0.0
2014-Sep-01 16:34N 62°00' W 006°46'0 0.0
2014-Sep-01 15:33N 62°00' W 006°46'0 0.0
2014-Sep-01 14:34N 62°00' W 006°46'0 0.0
2014-Sep-01 13:34N 62°00' W 006°46'0 0.0
2014-Sep-01 12:34N 62°00' W 006°46'0 0.0
2014-Sep-01 11:34N 62°00' W 006°46'0 0.0
2014-Sep-01 10:34N 62°00' W 006°46'0 0.0
2014-Sep-01 09:34N 62°00' W 006°46'0 0.0
2014-Sep-01 08:33N 62°00' W 006°46'0 0.0
2014-Sep-01 07:34N 62°00' W 006°46'0 0.0
2014-Sep-01 06:34N 62°00' W 006°46'0 0.0
2014-Sep-01 05:34N 62°00' W 006°46'5 5.2
2014-Sep-01 04:33N 62°03' W 006°37'8 8.3
2014-Sep-01 03:33N 62°01' W 006°20'7 7.0
2014-Sep-01 02:33N 61°59' W 006°06'6 5.9
2014-Sep-01 01:34N 61°56' W 005°54'5 5.4
2014-Sep-01 00:34N 61°54' W 005°44'7 7.2
2014-Aug-31 23:33N 61°51' W 005°30'6 6.4
2014-Aug-31 22:33N 61°48' W 005°17'29 7.0
2014-Aug-31 18:28N 61°36' W 004°22'4 4.1
2014-Aug-31 17:28N 61°35' W 004°14'17 5.3
2014-Aug-31 14:16N 61°27' W 003°42'84 3.4
2014-Aug-30 13:14N 61°16' W 006°37'26 9.8
2014-Aug-30 10:33N 61°40' W 007°01'10 9.8
2014-Aug-30 09:33N 61°50' W 006°60'6 5.9
2014-Aug-30 08:29N 61°45' W 007°08'7 6.0
2014-Aug-30 07:20N 61°40' W 007°18'5 6.3
2014-Aug-30 06:28N 61°36' W 007°25'35 1.7
2014-Aug-29 10:31N 62°09' W 007°49'7 6.5
2014-Aug-29 09:28N 62°15' W 007°55'12 5.8
2014-Aug-29 07:22N 62°26' W 008°06'85 3.0
2014-Aug-28 03:32N 63°30' W 006°05'5 4.3
2014-Aug-28 02:29N 63°26' W 006°04'6 5.9
2014-Aug-28 01:32N 63°20' W 006°05'66 6.4
2014-Aug-27 15:10N 62°14' W 006°18'5 8.9
2014-Aug-27 14:33N 62°10' W 006°26'9 9.2
2014-Aug-27 13:33N 62°04' W 006°40'4 4.3
2014-Aug-27 12:33N 62°00' W 006°46'0 0.0
2014-Aug-27 11:33N 62°00' W 006°46'0 0.0
2014-Aug-27 10:33N 62°00' W 006°46'0 0.0
2014-Aug-27 09:34N 62°00' W 006°46'0 0.0
2014-Aug-27 08:34N 62°00' W 006°46'0 0.0
2014-Aug-27 07:33N 62°00' W 006°46'0 0.0
2014-Aug-27 06:33N 62°00' W 006°46'0 0.0
2014-Aug-27 05:33N 62°00' W 006°46'0 0.0
2014-Aug-27 04:34N 62°00' W 006°46'0 0.0
2014-Aug-27 03:34N 62°00' W 006°46'0 0.0
2014-Aug-27 02:34N 62°00' W 006°46'0 0.0
2014-Aug-27 01:33N 62°00' W 006°46'0 0.0
2014-Aug-27 00:33N 62°00' W 006°46'0 0.0
2014-Aug-26 23:32N 62°00' W 006°46'0 0.0
2014-Aug-26 22:33N 62°00' W 006°46'0 0.0
2014-Aug-26 21:33N 62°00' W 006°46'0 0.0
2014-Aug-26 20:34N 62°00' W 006°46'0 0.0
2014-Aug-26 19:33N 62°00' W 006°46'0 0.0
2014-Aug-26 18:33N 62°00' W 006°46'0 0.0
2014-Aug-26 17:34N 62°00' W 006°46'0 0.0
2014-Aug-26 16:34N 62°00' W 006°46'0 0.0
2014-Aug-26 15:33N 62°00' W 006°46'0 0.0
2014-Aug-26 14:33N 62°00' W 006°46'0 0.0
2014-Aug-26 13:33N 62°00' W 006°46'0 0.0
2014-Aug-26 12:33N 62°00' W 006°46'0 0.0
2014-Aug-26 11:33N 62°00' W 006°46'0 0.0
2014-Aug-26 10:33N 62°00' W 006°46'0 0.0
2014-Aug-26 09:33N 62°00' W 006°46'0 0.0
2014-Aug-26 08:33N 62°00' W 006°46'0 0.0
2014-Aug-26 07:34N 62°00' W 006°46'0 0.0
2014-Aug-26 06:33N 62°00' W 006°46'0 0.0
2014-Aug-26 05:33N 62°00' W 006°46'0 0.0
2014-Aug-26 04:33N 62°00' W 006°46'0 0.0
2014-Aug-26 03:33N 62°00' W 006°46'0 0.0
2014-Aug-26 02:34N 62°00' W 006°46'0 0.0
2014-Aug-26 01:33N 62°00' W 006°46'0 0.0
2014-Aug-26 00:33N 62°00' W 006°46'0 0.0
2014-Aug-25 23:33N 62°00' W 006°46'0 0.0
2014-Aug-25 22:33N 62°00' W 006°46'0 0.0
2014-Aug-25 21:33N 62°00' W 006°46'0 0.0
2014-Aug-25 20:33N 62°00' W 006°46'0 0.0
2014-Aug-25 19:33N 62°00' W 006°46'0 0.0
2014-Aug-25 18:33N 62°00' W 006°46'0 0.0
2014-Aug-25 17:33N 62°00' W 006°46'0 0.0
2014-Aug-25 16:34N 62°00' W 006°46'0 0.0
2014-Aug-25 15:33N 62°00' W 006°46'4 3.5
2014-Aug-25 14:33N 62°03' W 006°51'2 2.2
2014-Aug-25 13:32N 62°04' W 006°47'5 5.2
2014-Aug-25 12:34N 62°09' W 006°46'2 2.4
2014-Aug-25 11:33N 62°07' W 006°45'4 4.4
2014-Aug-25 10:33N 62°06' W 006°35'5 5.0
2014-Aug-25 09:32N 62°11' W 006°32'10 9.6
2014-Aug-25 08:33N 62°03' W 006°41'3 3.4
2014-Aug-25 07:34N 62°00' W 006°46'0 0.0
2014-Aug-25 06:33N 62°00' W 006°46'0 0.0
2014-Aug-25 05:34N 62°00' W 006°46'0 0.0
2014-Aug-25 04:33N 62°00' W 006°46'0 0.0
2014-Aug-25 03:34N 62°00' W 006°46'0 0.0
2014-Aug-25 02:34N 62°00' W 006°46'0 0.0
2014-Aug-25 01:33N 62°00' W 006°46'0 0.0
2014-Aug-25 00:34N 62°00' W 006°46'0 0.0
2014-Aug-24 23:34N 62°00' W 006°46'0 0.0
2014-Aug-24 22:33N 62°00' W 006°46'0 0.0
2014-Aug-24 21:33N 62°00' W 006°46'0 0.0
2014-Aug-24 20:34N 62°00' W 006°46'0 0.0
2014-Aug-24 19:33N 62°00' W 006°46'0 0.0
2014-Aug-24 18:33N 62°00' W 006°46'0 0.0
2014-Aug-24 17:34N 62°00' W 006°46'0 0.0
2014-Aug-24 16:33N 62°00' W 006°46'0 0.0
2014-Aug-24 15:33N 62°00' W 006°46'0 0.0
2014-Aug-24 14:34N 62°00' W 006°46'0 0.0
2014-Aug-24 13:33N 62°00' W 006°46'0 0.0
2014-Aug-24 12:33N 62°00' W 006°46'0 0.0
2014-Aug-24 11:34N 62°00' W 006°46'0 0.0
2014-Aug-24 10:34N 62°00' W 006°46'0 0.0
2014-Aug-24 09:33N 62°00' W 006°46'0 0.0
2014-Aug-24 08:34N 62°00' W 006°46'0 0.0
2014-Aug-24 07:34N 62°00' W 006°46'0 0.0
2014-Aug-24 06:33N 62°00' W 006°46'0 0.0
2014-Aug-24 05:34N 62°00' W 006°46'0 0.0
2014-Aug-24 04:33N 62°00' W 006°46'0 0.0
2014-Aug-24 03:33N 62°00' W 006°46'0 0.0
2014-Aug-24 02:33N 62°00' W 006°46'0 0.0
2014-Aug-24 01:34N 62°00' W 006°46'0 0.0
2014-Aug-24 00:34N 62°00' W 006°46'0 0.0
2014-Aug-23 23:34N 62°00' W 006°46'0 0.0
2014-Aug-23 22:33N 62°00' W 006°46'0 0.0
2014-Aug-23 21:33N 62°00' W 006°46'0 0.0
2014-Aug-23 20:34N 62°00' W 006°46'0 0.2
2014-Aug-23 19:34N 62°00' W 006°46'0 0.0
2014-Aug-23 03:34N 62°00' W 006°46'0 0.0
2014-Aug-23 02:34N 62°00' W 006°46'0 0.0
2014-Aug-23 01:33N 62°00' W 006°46'0 0.0
2014-Aug-23 00:34N 62°00' W 006°46'0 0.0
2014-Aug-22 23:34N 62°00' W 006°46'0 0.0
2014-Aug-22 22:34N 62°00' W 006°46'  

Dump ship's entire track history